Time,TemperatureF,DewpointF,PressureIn,WindDirection,WindDirectionDegrees,WindSpeedMPH,WindSpeedGustMPH,Humidity,HourlyPrecipIn,Conditions,Clouds,dailyrainin,SoftwareType,DateUTC
2013-05-08 00:02:00,53.0,52.0,30.23,SSW,199,1.0,9.0,98,0.00,,,0.01,,2013-05-08 04:02:00,
2013-05-08 00:13:00,53.0,52.0,30.23,SSW,199,1.0,9.0,98,0.00,,,0.01,,2013-05-08 04:13:00,
2013-05-08 00:23:00,53.0,52.0,30.23,South,180,3.0,7.0,98,0.00,,,0.01,,2013-05-08 04:23:00,
2013-05-08 00:33:00,53.0,52.0,30.23,South,180,3.0,7.0,98,0.00,,,0.01,,2013-05-08 04:33:00,
2013-05-08 00:43:00,53.0,52.0,30.23,South,180,3.0,7.0,98,0.00,,,0.01,,2013-05-08 04:43:00,
2013-05-08 00:52:00,53.0,52.0,30.23,SSE,154,2.0,7.0,98,0.00,,,0.01,,2013-05-08 04:52:00,
2013-05-08 01:02:00,53.0,52.0,30.23,South,173,2.0,8.0,98,0.00,,,0.01,,2013-05-08 05:02:00,
2013-05-08 01:12:00,53.0,52.0,30.23,South,173,2.0,8.0,98,0.00,,,0.01,,2013-05-08 05:12:00,
2013-05-08 01:22:00,52.0,51.0,30.23,SSW,192,3.0,6.0,98,0.00,,,0.01,,2013-05-08 05:22:00,
2013-05-08 01:32:00,52.0,51.0,30.22,South,183,3.0,6.0,98,0.00,,,0.01,,2013-05-08 05:32:00,
2013-05-08 01:42:00,52.0,51.0,30.22,South,183,3.0,6.0,98,0.00,,,0.01,,2013-05-08 05:42:00,
2013-05-08 01:52:00,52.0,51.0,30.22,SSW,212,3.0,11.0,98,0.00,,,0.01,,2013-05-08 05:52:00,
2013-05-08 02:02:00,52.0,51.0,30.22,South,177,2.0,7.0,98,0.00,,,0.01,,2013-05-08 06:02:00,
2013-05-08 02:12:00,52.0,51.0,30.22,South,177,2.0,7.0,98,0.00,,,0.01,,2013-05-08 06:12:00,
2013-05-08 02:21:00,52.0,51.0,30.22,South,170,2.0,10.0,98,0.00,,,0.01,,2013-05-08 06:21:00,
2013-05-08 02:32:00,52.0,51.0,30.22,WSW,256,2.0,8.0,98,0.00,,,0.01,,2013-05-08 06:32:00,
2013-05-08 02:42:00,52.0,51.0,30.22,WSW,256,2.0,8.0,98,0.00,,,0.01,,2013-05-08 06:42:00,
2013-05-08 02:52:00,53.0,52.0,30.21,South,189,4.0,11.0,98,0.00,,,0.01,,2013-05-08 06:52:00,
2013-05-08 03:02:00,53.0,52.0,30.21,SW,214,3.0,9.0,97,0.00,,,0.01,,2013-05-08 07:02:00,
2013-05-08 03:11:00,53.0,52.0,30.21,SW,214,3.0,9.0,97,0.00,,,0.01,,2013-05-08 07:11:00,
2013-05-08 03:22:00,53.0,52.0,30.21,SW,234,4.0,11.0,97,0.00,,,0.01,,2013-05-08 07:22:00,
2013-05-08 03:32:00,53.0,52.0,30.21,South,180,3.0,15.0,96,0.00,,,0.01,,2013-05-08 07:32:00,
2013-05-08 03:42:00,53.0,52.0,30.21,South,180,3.0,15.0,96,0.00,,,0.01,,2013-05-08 07:42:00,
2013-05-08 03:52:00,52.0,51.0,30.21,SW,222,3.0,9.0,96,0.01,,,0.02,,2013-05-08 07:52:00,
2013-05-08 04:02:00,53.0,52.0,30.21,South,185,1.0,11.0,96,0.01,,,0.02,,2013-05-08 08:02:00,
2013-05-08 04:12:00,53.0,52.0,30.21,South,185,1.0,11.0,96,0.01,,,0.02,,2013-05-08 08:12:00,
2013-05-08 04:22:00,52.0,51.0,30.22,SSW,208,4.0,7.0,96,0.01,,,0.02,,2013-05-08 08:22:00,
2013-05-08 04:32:00,52.0,51.0,30.21,SW,222,3.0,9.0,97,0.01,,,0.02,,2013-05-08 08:32:00,
2013-05-08 04:42:00,52.0,51.0,30.21,SW,222,3.0,9.0,97,0.01,,,0.02,,2013-05-08 08:42:00,
2013-05-08 04:52:00,53.0,52.0,30.21,WSW,254,4.0,12.0,97,0.00,,,0.02,,2013-05-08 08:52:00,
2013-05-08 05:02:00,54.0,53.0,30.21,West,277,5.0,14.0,97,0.00,,,0.02,,2013-05-08 09:02:00,
2013-05-08 05:11:00,54.0,53.0,30.21,West,277,5.0,14.0,97,0.00,,,0.02,,2013-05-08 09:11:00,
2013-05-08 05:21:00,53.0,52.0,30.22,SSW,209,2.0,9.0,95,0.00,,,0.02,,2013-05-08 09:21:00,
2013-05-08 05:32:00,53.0,52.0,30.22,WSW,239,3.0,8.0,96,0.00,,,0.02,,2013-05-08 09:32:00,
2013-05-08 05:42:00,53.0,52.0,30.22,WSW,239,3.0,8.0,96,0.00,,,0.02,,2013-05-08 09:42:00,
2013-05-08 05:52:00,53.0,52.0,30.23,SSW,195,2.0,9.0,97,0.00,,,0.02,,2013-05-08 09:52:00,
2013-05-08 06:02:00,52.0,51.0,30.23,SSE,156,0.0,3.0,96,0.00,,,0.02,,2013-05-08 10:02:00,
2013-05-08 06:12:00,52.0,51.0,30.23,SSE,156,0.0,3.0,96,0.00,,,0.02,,2013-05-08 10:12:00,
2013-05-08 06:22:00,53.0,52.0,30.24,SW,233,1.0,6.0,96,0.00,,,0.02,,2013-05-08 10:22:00,
2013-05-08 06:33:00,52.0,51.0,30.24,South,174,1.0,4.0,97,0.00,,,0.02,,2013-05-08 10:33:00,
2013-05-08 06:42:00,52.0,51.0,30.24,South,174,1.0,4.0,97,0.00,,,0.02,,2013-05-08 10:42:00,
2013-05-08 06:52:00,52.0,51.0,30.25,South,174,0.0,2.0,97,0.00,,,0.02,,2013-05-08 10:52:00,
2013-05-08 07:02:00,53.0,52.0,30.25,SSE,168,0.0,1.0,97,0.00,,,0.02,,2013-05-08 11:02:00,
2013-05-08 07:12:00,53.0,52.0,30.25,SSE,168,0.0,1.0,97,0.00,,,0.02,,2013-05-08 11:12:00,
2013-05-08 07:22:00,55.0,54.0,30.26,SSE,168,0.0,1.0,96,0.00,,,0.02,,2013-05-08 11:22:00,
2013-05-08 07:32:00,57.0,55.0,30.26,South,185,0.0,2.0,94,0.00,,,0.02,,2013-05-08 11:32:00,
2013-05-08 07:42:00,57.0,55.0,30.26,South,185,0.0,2.0,94,0.00,,,0.02,,2013-05-08 11:42:00,
2013-05-08 07:52:00,58.0,56.0,30.27,South,170,0.0,3.0,92,0.00,,,0.02,,2013-05-08 11:52:00,
2013-05-08 08:02:00,58.0,55.0,30.27,SSW,200,1.0,7.0,90,0.00,,,0.02,,2013-05-08 12:02:00,
2013-05-08 08:11:00,58.0,55.0,30.27,SSW,200,1.0,7.0,90,0.00,,,0.02,,2013-05-08 12:11:00,
2013-05-08 08:21:00,59.0,55.0,30.27,SSW,195,2.0,10.0,88,0.00,,,0.02,,2013-05-08 12:21:00,
2013-05-08 08:32:00,60.0,56.0,30.27,WSW,247,3.0,11.0,86,0.00,,,0.02,,2013-05-08 12:32:00,
2013-05-08 08:42:00,60.0,56.0,30.27,WSW,247,3.0,11.0,86,0.00,,,0.02,,2013-05-08 12:42:00,
2013-05-08 08:52:00,62.0,57.0,30.28,SSW,193,3.0,12.0,83,0.00,,,0.02,,2013-05-08 12:52:00,
2013-05-08 09:01:00,63.0,56.0,30.28,SW,223,3.0,8.0,79,0.00,,,0.02,,2013-05-08 13:01:00,
2013-05-08 09:12:00,63.0,56.0,30.28,SW,223,3.0,8.0,79,0.00,,,0.02,,2013-05-08 13:12:00,
2013-05-08 09:21:00,65.0,56.0,30.29,SW,226,7.0,15.0,74,0.00,,,0.02,,2013-05-08 13:21:00,
2013-05-08 09:32:00,65.0,56.0,30.29,SW,231,7.0,13.0,73,0.00,,,0.01,,2013-05-08 13:32:00,
2013-05-08 09:42:00,65.0,56.0,30.29,SW,231,7.0,13.0,73,0.00,,,0.01,,2013-05-08 13:42:00,
2013-05-08 09:52:00,65.0,56.0,30.29,WSW,251,3.0,13.0,73,0.00,,,0.01,,2013-05-08 13:52:00,
2013-05-08 10:02:00,66.0,56.0,30.29,SSE,164,6.0,16.0,70,0.00,,,0.01,,2013-05-08 14:02:00,
2013-05-08 10:12:00,66.0,56.0,30.29,SSE,164,6.0,16.0,70,0.00,,,0.01,,2013-05-08 14:12:00,
2013-05-08 10:22:00,67.0,55.0,30.29,SSW,204,7.0,15.0,66,0.00,,,0.01,,2013-05-08 14:22:00,
2013-05-08 10:32:00,68.0,55.0,30.29,South,191,3.0,14.0,64,0.00,,,0.01,,2013-05-08 14:32:00,
2013-05-08 10:42:00,68.0,55.0,30.29,South,191,3.0,14.0,64,0.00,,,0.01,,2013-05-08 14:42:00,
2013-05-08 10:52:00,69.0,55.0,30.29,SE,138,6.0,13.0,61,0.00,,,0.01,,2013-05-08 14:52:00,
2013-05-08 11:02:00,70.0,55.0,30.29,SW,228,7.0,20.0,59,0.00,,,0.01,,2013-05-08 15:02:00,
2013-05-08 11:11:00,70.0,55.0,30.29,SW,228,7.0,20.0,59,0.00,,,0.01,,2013-05-08 15:11:00,
2013-05-08 11:22:00,69.0,55.0,30.29,SSW,198,6.0,19.0,60,0.00,,,0.01,,2013-05-08 15:22:00,
2013-05-08 11:33:00,70.0,55.0,30.29,SSE,149,9.0,16.0,59,0.00,,,0.01,,2013-05-08 15:33:00,
2013-05-08 11:42:00,70.0,55.0,30.29,SSE,149,9.0,16.0,59,0.00,,,0.01,,2013-05-08 15:42:00,
2013-05-08 11:52:00,69.0,53.0,30.29,SE,140,11.0,20.0,57,0.00,,,0.01,,2013-05-08 15:52:00,
2013-05-08 12:03:00,70.0,54.0,30.28,SSE,166,7.0,16.0,57,0.00,,,0.01,,2013-05-08 16:03:00,
2013-05-08 12:12:00,70.0,54.0,30.28,SSE,166,7.0,16.0,57,0.00,,,0.01,,2013-05-08 16:12:00,
2013-05-08 12:23:00,71.0,54.0,30.29,West,259,6.0,15.0,56,0.00,,,0.01,,2013-05-08 16:23:00,
2013-05-08 12:33:00,70.0,54.0,30.28,South,191,8.0,19.0,57,0.00,,,0.01,,2013-05-08 16:33:00,
2013-05-08 12:42:00,70.0,54.0,30.28,South,191,8.0,19.0,57,0.00,,,0.01,,2013-05-08 16:42:00,
2013-05-08 12:52:00,70.0,55.0,30.28,SW,233,7.0,16.0,58,0.00,,,0.01,,2013-05-08 16:52:00,
2013-05-08 13:02:00,71.0,56.0,30.28,SE,132,9.0,20.0,59,0.00,,,0.01,,2013-05-08 17:02:00,
2013-05-08 13:12:00,71.0,56.0,30.28,SE,132,9.0,20.0,59,0.00,,,0.01,,2013-05-08 17:12:00,
2013-05-08 13:22:00,71.0,56.0,30.28,SSW,197,8.0,17.0,60,0.00,,,0.01,,2013-05-08 17:22:00,
2013-05-08 13:32:00,71.0,56.0,30.28,SSW,197,8.0,17.0,60,0.00,,,0.01,,2013-05-08 17:32:00,
2013-05-08 13:41:00,71.0,56.0,30.28,SSW,197,8.0,17.0,60,0.00,,,0.01,,2013-05-08 17:41:00,
2013-05-08 13:52:00,70.0,55.0,30.27,SSE,168,10.0,17.0,59,0.00,,,0.01,,2013-05-08 17:52:00,
2013-05-08 14:02:00,70.0,55.0,30.28,SSW,194,9.0,17.0,58,0.00,,,0.01,,2013-05-08 18:02:00,
2013-05-08 14:12:00,70.0,55.0,30.28,SSW,194,9.0,17.0,58,0.00,,,0.01,,2013-05-08 18:12:00,
2013-05-08 14:21:00,70.0,55.0,30.28,WSW,249,8.0,20.0,58,0.00,,,0.01,,2013-05-08 18:21:00,
2013-05-08 14:32:00,70.0,55.0,30.28,SW,216,7.0,21.0,59,0.00,,,0.01,,2013-05-08 18:32:00,
2013-05-08 14:42:00,70.0,55.0,30.28,SW,216,7.0,21.0,59,0.00,,,0.01,,2013-05-08 18:42:00,
2013-05-08 14:52:00,71.0,56.0,30.27,SE,138,7.0,19.0,60,0.00,,,0.01,,2013-05-08 18:52:00,
2013-05-08 15:01:00,69.0,55.0,30.27,South,177,9.0,19.0,61,0.00,,,0.01,,2013-05-08 19:01:00,
2013-05-08 15:11:00,69.0,55.0,30.27,South,177,9.0,19.0,61,0.00,,,0.01,,2013-05-08 19:11:00,
2013-05-08 15:22:00,69.0,57.0,30.27,South,169,9.0,16.0,65,0.00,,,0.01,,2013-05-08 19:22:00,
2013-05-08 15:32:00,68.0,57.0,30.26,SSW,196,9.0,17.0,67,0.00,,,0.01,,2013-05-08 19:32:00,
2013-05-08 15:42:00,68.0,57.0,30.26,SSW,196,9.0,17.0,67,0.00,,,0.01,,2013-05-08 19:42:00,
2013-05-08 15:52:00,68.0,56.0,30.25,SSW,211,6.0,15.0,65,0.00,,,0.01,,2013-05-08 19:52:00,
2013-05-08 16:02:00,68.0,56.0,30.25,South,174,7.0,18.0,66,0.00,,,0.01,,2013-05-08 20:02:00,
2013-05-08 16:12:00,68.0,56.0,30.25,South,174,7.0,18.0,66,0.00,,,0.01,,2013-05-08 20:12:00,
2013-05-08 16:22:00,67.0,57.0,30.25,South,174,8.0,17.0,71,0.00,,,0.01,,2013-05-08 20:22:00,
2013-05-08 16:32:00,67.0,58.0,30.25,South,187,8.0,17.0,73,0.00,,,0.01,,2013-05-08 20:32:00,
2013-05-08 16:42:00,66.0,58.0,30.25,SSE,166,7.0,21.0,76,0.00,,,0.01,,2013-05-08 20:42:00,
2013-05-08 16:52:00,66.0,58.0,30.25,SSE,166,7.0,21.0,76,0.00,,,0.01,,2013-05-08 20:52:00,
2013-05-08 17:02:00,67.0,58.0,30.24,SE,143,8.0,18.0,73,0.00,,,0.01,,2013-05-08 21:02:00,
2013-05-08 17:12:00,66.0,57.0,30.24,ESE,122,8.0,18.0,74,0.00,,,0.01,,2013-05-08 21:12:00,
2013-05-08 17:21:00,66.0,57.0,30.24,ESE,122,8.0,18.0,74,0.00,,,0.01,,2013-05-08 21:21:00,
2013-05-08 17:33:00,66.0,57.0,30.24,SSE,158,10.0,18.0,74,0.00,,,0.01,,2013-05-08 21:33:00,
2013-05-08 17:43:00,66.0,58.0,30.24,SSE,161,7.0,14.0,76,0.00,,,0.01,,2013-05-08 21:43:00,
2013-05-08 17:52:00,66.0,58.0,30.24,SSE,161,7.0,14.0,76,0.00,,,0.01,,2013-05-08 21:52:00,
2013-05-08 18:03:00,66.0,58.0,30.24,South,181,10.0,20.0,75,0.00,,,0.01,,2013-05-08 22:03:00,
2013-05-08 18:12:00,66.0,58.0,30.24,South,181,10.0,20.0,75,0.00,,,0.01,,2013-05-08 22:12:00,
2013-05-08 18:22:00,65.0,58.0,30.24,SE,141,7.0,14.0,78,0.00,,,0.01,,2013-05-08 22:22:00,
2013-05-08 18:33:00,64.0,58.0,30.24,SSE,148,5.0,15.0,81,0.00,,,0.01,,2013-05-08 22:33:00,
2013-05-08 18:42:00,64.0,58.0,30.23,SE,145,6.0,14.0,81,0.00,,,0.01,,2013-05-08 22:42:00,
2013-05-08 18:52:00,64.0,58.0,30.23,SE,145,6.0,14.0,81,0.00,,,0.01,,2013-05-08 22:52:00,
2013-05-08 19:02:00,63.0,57.0,30.23,SSE,168,8.0,15.0,82,0.00,,,0.01,,2013-05-08 23:02:00,
2013-05-08 19:12:00,62.0,57.0,30.23,SSE,150,8.0,15.0,84,0.00,,,0.01,,2013-05-08 23:12:00,
2013-05-08 19:22:00,62.0,57.0,30.23,SSE,150,8.0,15.0,84,0.00,,,0.01,,2013-05-08 23:22:00,
2013-05-08 19:32:00,61.0,57.0,30.23,South,189,6.0,18.0,86,0.00,,,0.01,,2013-05-08 23:32:00,
2013-05-08 19:42:00,61.0,57.0,30.23,South,177,3.0,10.0,88,0.00,,,0.01,,2013-05-08 23:42:00,
2013-05-08 19:52:00,61.0,57.0,30.23,South,177,3.0,10.0,88,0.00,,,0.01,,2013-05-08 23:52:00,
2013-05-08 20:02:00,60.0,57.0,30.23,South,183,4.0,10.0,89,0.00,,,0.01,,2013-05-09 00:02:00,
2013-05-08 20:12:00,60.0,57.0,30.23,South,183,4.0,10.0,89,0.00,,,0.01,,2013-05-09 00:12:00,
2013-05-08 20:21:00,59.0,56.0,30.23,South,170,3.0,7.0,90,0.00,,,0.01,,2013-05-09 00:21:00,
2013-05-08 20:32:00,59.0,57.0,30.23,South,170,1.0,5.0,92,0.00,,,0.01,,2013-05-09 00:32:00,
2013-05-08 20:42:00,58.0,56.0,30.23,South,170,3.0,6.0,93,0.00,,,0.01,,2013-05-09 00:42:00,
2013-05-08 20:52:00,58.0,56.0,30.23,South,170,3.0,6.0,93,0.00,,,0.01,,2013-05-09 00:52:00,
2013-05-08 21:01:00,57.0,55.0,30.22,SSE,167,1.0,3.0,94,0.00,,,0.01,,2013-05-09 01:01:00,
2013-05-08 21:12:00,57.0,55.0,30.22,SSE,167,1.0,3.0,94,0.00,,,0.01,,2013-05-09 01:12:00,
2013-05-08 21:22:00,57.0,55.0,30.23,SSE,167,2.0,5.0,94,0.00,,,0.01,,2013-05-09 01:22:00,
2013-05-08 21:32:00,56.0,55.0,30.23,SSE,167,3.0,5.0,96,0.00,,,0.01,,2013-05-09 01:32:00,
2013-05-08 21:42:00,56.0,55.0,30.23,SSE,167,1.0,4.0,96,0.00,,,0.01,,2013-05-09 01:42:00,
2013-05-08 21:52:00,56.0,55.0,30.23,SSE,167,1.0,4.0,96,0.00,,,0.01,,2013-05-09 01:52:00,
2013-05-08 22:02:00,56.0,55.0,30.23,SSE,167,2.0,5.0,97,0.00,,,0.01,,2013-05-09 02:02:00,
2013-05-08 22:12:00,56.0,55.0,30.22,SSE,167,3.0,7.0,97,0.00,,,0.01,,2013-05-09 02:12:00,
2013-05-08 22:22:00,56.0,55.0,30.22,SSE,167,3.0,7.0,97,0.00,,,0.01,,2013-05-09 02:22:00,
2013-05-08 22:33:00,56.0,55.0,30.22,SSE,167,3.0,6.0,97,0.00,,,0.01,,2013-05-09 02:33:00,
2013-05-08 22:42:00,56.0,55.0,30.22,SSE,167,3.0,6.0,97,0.00,,,0.01,,2013-05-09 02:42:00,
2013-05-08 22:52:00,56.0,55.0,30.22,SSE,167,3.0,6.0,97,0.00,,,0.01,,2013-05-09 02:52:00,
2013-05-08 23:02:00,56.0,55.0,30.22,SSE,164,2.0,7.0,97,0.00,,,0.01,,2013-05-09 03:02:00,
2013-05-08 23:11:00,56.0,55.0,30.22,SSE,164,2.0,7.0,97,0.00,,,0.01,,2013-05-09 03:11:00,
2013-05-08 23:21:00,57.0,56.0,30.21,SSE,156,3.0,15.0,96,0.00,,,0.01,,2013-05-09 03:21:00,
2013-05-08 23:33:00,56.0,55.0,30.21,SSE,161,5.0,10.0,96,0.00,,,0.01,,2013-05-09 03:33:00,
2013-05-08 23:43:00,56.0,55.0,30.21,SSE,161,5.0,10.0,96,0.00,,,0.01,,2013-05-09 03:43:00,
2013-05-08 23:53:00,56.0,55.0,30.21,SSE,154,4.0,9.0,96,0.00,,,0.01,,2013-05-09 03:53:00,